$Date,$Time,DM0201B,DM0203B,DM0205B,DM0207B,DM0209B
01/04/99,00:00:01,597,171,-7,175,950
01/04/99,00:05:01,602,171,-7,177,950
01/04/99,00:10:01,604,171,-8,181,950
01/04/99,00:15:01,621,171,-8,185,950
01/04/99,00:20:01,628,181,-8,191,950
01/04/99,00:25:01,565,181,-8,195,950
01/04/99,00:30:01,548,181,-8,199,950
01/04/99,00:35:01,572,181,-8,196,950
01/04/99,00:40:01,690,181,-8,199,950
01/04/99,00:45:01,622,181,-8,211,950
01/04/99,00:50:01,670,181,-8,205,950
01/04/99,00:55:01,630,181,-8,195,950
01/04/99,01:00:01,590,181,-8,192,952
01/04/99,01:05:01,537,181,-8,195,952
01/04/99,01:10:01,591,186,-7,195,952
01/04/99,01:15:01,535,186,-7,197,952
01/04/99,01:20:01,518,186,-8,189,952
01/04/99,01:25:01,339,198,-8,174,952
01/04/99,01:30:01,362,196,-8,172,952
01/04/99,01:35:01,467,182,-8,170,952
01/04/99,01:40:01,468,182,-8,170,952
01/04/99,01:45:01,529,172,-8,166,952
01/04/99,01:50:01,563,172,-8,154,952
01/04/99,01:55:01,551,170,-8,145,952
01/04/99,02:00:01,600,181,-8,146,952
01/04/99,02:05:01,532,181,-8,144,952
01/04/99,02:10:01,574,181,-8,145,952
01/04/99,02:15:01,556,180,-8,149,952
01/04/99,02:20:01,532,169,-8,155,952
01/04/99,02:25:01,507,169,-8,158,952
01/04/99,02:30:01,566,169,-8,162,950
01/04/99,02:35:01,636,169,-8,167,950
01/04/99,02:40:01,588,168,-7,173,950
01/04/99,02:45:01,559,168,-7,179,950
01/04/99,02:50:01,481,169,-7,187,952
01/04/99,02:55:01,445,159,-7,189,952
01/04/99,03:00:01,510,173,-7,193,952
01/04/99,03:05:01,477,175,-7,197,952
01/04/99,03:10:01,413,175,-7,192,952
01/04/99,03:15:01,403,176,-7,190,952
01/04/99,03:20:01,397,167,-7,192,952
01/04/99,03:25:01,446,168,-7,192,952
01/04/99,03:30:01,524,168,-7,196,952
01/04/99,03:35:01,515,171,-7,200,952
01/04/99,03:40:01,491,171,-7,206,952
01/04/99,03:45:01,488,172,-7,218,952
01/04/99,03:50:01,476,172,-7,220,952
01/04/99,03:55:01,380,172,-7,224,952
01/04/99,04:00:01,403,173,-7,216,952
01/04/99,04:05:01,484,173,-7,216,952
01/04/99,04:10:01,442,173,-7,224,952
01/04/99,04:15:01,389,183,-7,225,952
01/04/99,04:20:01,450,173,-7,227,952
01/04/99,04:25:01,468,173,-7,234,952
01/04/99,04:30:01,504,173,-7,232,952
01/04/99,04:35:01,434,173,-7,224,952
01/04/99,04:40:01,500,173,-7,216,952
01/04/99,04:45:01,545,173,-7,221,952
01/04/99,04:50:01,571,173,-7,230,952
01/04/99,04:55:01,547,173,-7,233,952
01/04/99,05:00:01,495,173,-7,237,952
01/04/99,05:05:01,509,173,-7,237,952
01/04/99,05:10:01,549,173,-7,231,952
01/04/99,05:15:01,455,173,-7,231,952
01/04/99,05:20:01,523,173,-7,227,952
01/04/99,05:25:01,549,173,-7,225,952
01/04/99,05:30:01,566,173,-7,223,952
01/04/99,05:35:01,527,173,-7,221,952
01/04/99,05:40:01,509,173,-7,215,952
01/04/99,05:45:01,550,171,-7,207,952
01/04/99,05:50:01,593,171,-7,199,952
01/04/99,05:55:01,557,171,-7,195,952
01/04/99,06:00:01,559,172,-7,195,952
01/04/99,06:05:01,543,172,-7,195,952
01/04/99,06:10:01,559,172,-7,197,952
01/04/99,06:15:01,531,172,-7,197,952
01/04/99,06:20:01,516,172,-7,199,952
01/04/99,06:25:01,601,184,-7,201,952
01/04/99,06:30:01,519,172,-7,205,952
01/04/99,06:35:01,444,182,-7,182,952
01/04/99,06:40:01,439,174,-7,172,952
01/04/99,06:45:01,492,175,-7,156,952
01/04/99,06:50:01,478,175,-7,152,952
01/04/99,06:55:01,575,175,-7,148,952
01/04/99,07:00:01,534,175,-7,148,952
01/04/99,07:05:01,550,165,-7,150,952
01/04/99,07:10:01,574,175,-7,150,952
01/04/99,07:15:01,548,161,-7,150,952
01/04/99,07:20:01,598,160,-7,152,952
01/04/99,07:25:01,512,171,-7,152,952
01/04/99,07:30:01,607,167,-7,146,952
01/04/99,07:35:01,607,167,-7,159,952
01/04/99,07:40:01,569,167,-6,154,952
01/04/99,07:45:01,580,167,-6,142,952
01/04/99,07:50:01,580,167,-6,132,952
01/04/99,07:55:01,539,167,-6,121,952
01/04/99,08:00:01,543,167,-7,117,952
01/04/99,08:05:01,552,167,-7,111,952
01/04/99,08:10:01,540,167,-7,109,952
01/04/99,08:15:01,632,167,-7,105,952
01/04/99,08:20:01,644,167,-7,99,952
01/04/99,08:25:01,597,167,-7,91,952
01/04/99,08:30:01,592,167,-7,85,952
01/04/99,08:35:01,565,168,-7,85,952
01/04/99,08:40:01,592,173,-7,89,952
01/04/99,08:45:01,577,172,-7,83,952
01/04/99,08:50:01,629,172,-7,79,952
01/04/99,08:55:01,611,172,-7,79,952
01/04/99,09:00:01,564,172,-7,79,952
01/04/99,09:05:01,605,172,-7,79,952
01/04/99,09:10:01,582,172,-7,75,952
01/04/99,09:15:01,630,172,-7,75,952
01/04/99,09:20:01,592,172,-7,77,952
01/04/99,09:25:01,581,161,-7,77,952
01/04/99,09:30:01,627,175,-7,77,952
01/04/99,09:35:01,654,175,-7,73,952
01/04/99,09:40:01,617,174,-8,75,952
01/04/99,09:45:01,599,174,-8,77,952
01/04/99,09:50:01,522,174,-8,86,952
01/04/99,09:55:01,616,174,-8,94,952
01/04/99,10:00:01,603,174,-8,90,952
01/04/99,10:05:01,686,174,-8,98,952
01/04/99,10:10:01,598,174,-8,100,952
01/04/99,10:15:01,600,174,-8,96,952
01/04/99,10:20:01,615,174,-8,94,952
01/04/99,10:25:01,584,164,-7,92,952
01/04/99,10:30:01,577,164,-7,86,952
01/04/99,10:35:01,597,164,-7,84,952
01/04/99,10:40:01,634,164,-7,84,952
01/04/99,10:45:01,639,164,-7,84,952
01/04/99,10:50:01,619,164,-7,84,952
01/04/99,10:55:01,626,164,-7,78,952
01/04/99,11:00:01,647,167,-7,72,952
01/04/99,11:05:01,689,167,-7,70,952
01/04/99,11:10:01,724,167,-7,68,950
01/04/99,11:15:01,670,167,-7,66,950
01/04/99,11:20:01,684,167,-8,64,950
01/04/99,11:25:01,798,167,-8,64,950
01/04/99,11:30:01,704,167,-8,62,952
01/04/99,11:35:01,728,167,-8,62,950
01/04/99,11:40:01,727,167,-8,64,952
01/04/99,11:45:01,698,167,-8,64,952
01/04/99,11:50:01,681,167,-8,66,952
01/04/99,11:55:01,641,177,-7,70,952
01/04/99,12:00:01,660,177,-8,70,952
01/04/99,12:05:01,592,177,-8,70,952
01/04/99,12:10:01,602,177,-8,70,952
01/04/99,12:15:01,617,177,-8,72,952
01/04/99,12:20:01,613,177,-8,70,952
01/04/99,12:25:01,706,177,-8,70,952
01/04/99,12:30:01,680,177,-8,74,950
01/04/99,12:35:01,652,177,-8,72,952
01/04/99,12:40:01,627,178,-8,68,952
01/04/99,12:45:01,640,188,-8,60,952
01/04/99,12:50:01,575,188,-8,54,952
01/04/99,12:55:01,637,188,-8,52,952
01/04/99,13:00:01,585,178,-8,50,952
01/04/99,13:05:01,561,178,-8,48,952
01/04/99,13:10:01,601,178,-8,46,952
01/04/99,13:15:01,629,178,-8,46,952
01/04/99,13:20:01,648,178,-8,46,952
01/04/99,13:25:01,620,178,-8,48,952
01/04/99,13:30:01,642,178,-8,48,952
01/04/99,13:35:01,579,178,-8,48,952
01/04/99,13:40:01,612,178,-8,48,952
01/04/99,13:45:01,541,178,-7,48,952
01/04/99,13:50:01,521,178,-7,46,952
01/04/99,13:55:01,491,178,-7,46,952
01/04/99,14:00:01,457,178,-7,44,952
01/04/99,14:05:01,506,168,-7,44,952
01/04/99,14:10:01,438,180,-7,44,952
01/04/99,14:15:01,564,169,-7,44,952
01/04/99,14:20:01,512,180,-7,46,952
01/04/99,14:25:01,575,180,-7,46,952
01/04/99,14:30:01,456,171,-7,46,952
01/04/99,14:35:01,609,180,-7,46,952
01/04/99,14:40:01,496,183,-7,46,952
01/04/99,14:45:01,526,173,-7,48,952
01/04/99,14:50:01,536,173,-7,50,952
01/04/99,14:55:01,524,173,-7,52,952
01/04/99,15:00:01,539,173,-7,54,952
01/04/99,15:05:01,556,176,-7,56,952
01/04/99,15:10:01,569,176,-7,58,952
01/04/99,15:15:01,508,176,-7,60,952
01/04/99,15:20:01,549,176,-7,62,952
01/04/99,15:25:01,435,176,-7,66,952
01/04/99,15:30:01,501,176,-7,68,952
01/04/99,15:35:01,536,176,-6,72,952
01/04/99,15:40:01,528,173,-6,74,952
01/04/99,15:45:01,538,176,-6,76,952
01/04/99,15:50:01,510,176,-6,78,952
01/04/99,15:55:01,470,176,-6,84,952
01/04/99,16:00:01,540,185,-6,84,952
01/04/99,16:05:01,412,185,-6,86,954
01/04/99,16:10:01,471,185,-6,90,954
01/04/99,16:15:01,407,185,-6,90,954
01/04/99,16:20:01,352,189,-6,92,954
01/04/99,16:25:01,284,180,-6,92,954
01/04/99,16:30:01,320,180,-6,92,954
01/04/99,16:35:01,313,174,-6,94,954
01/04/99,16:40:01,374,174,-6,98,954
01/04/99,16:45:01,584,184,-6,104,952
01/04/99,16:50:01,613,184,-6,110,952
01/04/99,16:55:01,521,184,-6,118,952
01/04/99,17:00:01,565,182,-6,120,952
01/04/99,17:05:01,549,182,-6,122,952
01/04/99,17:10:01,567,182,-6,126,952
01/04/99,17:15:01,558,182,-7,138,952
01/04/99,17:20:01,603,182,-6,144,952
01/04/99,17:25:01,622,170,-6,150,952
01/04/99,17:30:01,643,180,-6,154,952
01/04/99,17:35:01,675,180,-6,160,952
01/04/99,17:40:01,641,180,-6,170,952
01/04/99,17:45:01,598,178,-6,180,952
01/04/99,17:50:01,655,168,-6,190,952
01/04/99,17:55:01,658,172,-6,196,952
01/04/99,18:00:01,623,172,-6,202,952
01/04/99,18:05:01,640,172,-6,216,952
01/04/99,18:10:01,558,172,-6,234,952
01/04/99,18:15:01,676,172,-6,276,952
01/04/99,18:20:01,649,172,-6,369,952
01/04/99,18:25:01,603,172,-6,298,952
01/04/99,18:30:01,566,172,-6,255,952
01/04/99,18:35:01,584,172,-6,252,952
01/04/99,18:40:01,581,182,-6,242,952
01/04/99,18:45:01,700,172,-6,232,952
01/04/99,18:50:01,605,172,-6,223,952
01/04/99,18:55:01,568,172,-6,219,952
01/04/99,19:00:01,613,172,-6,221,952
01/04/99,19:05:01,605,170,-6,231,952
01/04/99,19:10:01,590,172,-6,245,952
01/04/99,19:15:01,650,172,-6,253,952
01/04/99,19:20:01,592,171,-6,261,952
01/04/99,19:25:01,598,181,-6,285,952
01/04/99,19:30:01,594,171,-6,320,954
01/04/99,19:35:01,583,181,-6,356,952
01/04/99,19:40:01,660,181,-6,289,952
01/04/99,19:45:01,673,171,-6,268,952
01/04/99,19:50:01,683,171,-6,247,952
01/04/99,19:55:01,693,171,-6,227,950
01/04/99,20:00:01,725,171,-6,217,952
01/04/99,20:05:01,754,171,-6,217,950
01/04/99,20:10:01,699,171,-6,225,952
01/04/99,20:15:01,668,171,-6,227,950
01/04/99,20:20:01,678,171,-6,227,952
01/04/99,20:25:01,724,171,-6,225,952
01/04/99,20:30:01,604,171,-7,225,952
01/04/99,20:35:01,621,171,-7,227,952
01/04/99,20:40:01,632,171,-7,229,952
01/04/99,20:45:01,599,171,-7,227,952
01/04/99,20:50:01,603,171,-7,227,952
01/04/99,20:55:01,576,171,-7,233,952
01/04/99,21:00:01,564,171,-7,233,952
01/04/99,21:05:01,541,171,-7,224,952
01/04/99,21:10:01,486,181,-7,220,954
01/04/99,21:15:01,484,181,-7,218,954
01/04/99,21:20:01,456,181,-7,214,954
01/04/99,21:25:01,393,181,-7,212,954
01/04/99,21:30:01,403,181,-7,206,954
01/04/99,21:35:01,433,181,-7,206,954
01/04/99,21:40:01,406,181,-7,190,954
01/04/99,21:45:01,440,181,-7,188,954
01/04/99,21:50:01,369,180,-7,194,954
01/04/99,21:55:01,341,180,-7,206,954
01/04/99,22:00:01,381,180,-7,200,954
01/04/99,22:05:01,345,180,-6,201,954
01/04/99,22:10:01,506,180,-6,199,954
01/04/99,22:15:01,468,180,-6,199,954
01/04/99,22:20:01,488,180,-6,190,954
01/04/99,22:25:01,526,180,-6,183,954
01/04/99,22:30:01,553,180,-6,179,954
01/04/99,22:35:01,528,180,-7,175,954
01/04/99,22:40:01,530,180,-7,181,954
01/04/99,22:45:01,509,180,-7,181,954
01/04/99,22:50:01,526,180,-7,185,954
01/04/99,22:55:01,572,169,-7,191,954
01/04/99,23:00:01,537,169,-7,191,954
01/04/99,23:05:01,571,169,-7,191,954
01/04/99,23:10:01,569,169,-7,193,954
01/04/99,23:15:01,571,169,-7,194,954
01/04/99,23:20:01,540,167,-7,187,954
01/04/99,23:25:01,601,177,-7,189,954
01/04/99,23:30:01,566,167,-7,193,954
01/04/99,23:35:01,576,167,-7,188,954
01/04/99,23:40:01,648,170,-7,201,954
01/04/99,23:45:01,546,170,-7,195,954
01/04/99,23:50:01,578,170,-7,201,954
01/04/99,23:55:01,597,180,-7,198,954
01/05/99,00:00:01,583,180,-7,194,954
